Three Rivers, MI

9:59 AM EDT on August 27, 2016 (GMT -0400)
Three Rivers Municipal-Haines

Weather History for KHAI - January, 2013

Change the Weather History Date:

Sunday, January 20, 2013

  Actual Average Record
Temperature  
Mean Temperature 28 °F -  
Max Temperature 40 °F 30 °F 51 °F (1954)
Min Temperature 17 °F 13 °F -16 °F (1985)
Degree Days  
Heating Degree Days 36    
Moisture  
Dew Point 11 °F    
Average Humidity 67    
Maximum Humidity 77    
Minimum Humidity 48    
Precipitation  
Precipitation 0.00 in - - ()
Sea Level Pressure  
Sea Level Pressure 30.10 in    
Wind  
Wind Speed 18 mph (WNW)    
Max Wind Speed 36 mph    
Max Gust Speed 51 mph    
Visibility 9 miles    
Events Snow    
Averages and records for this station are not official NWS values.
T = Trace of Precipitation, MM = Missing Value Source: NWS Daily Summary

Daily Weather History Graph

Daily Weather History Graph

Search for Another Location

Airport or City:

Trip Planner

Search our weather history database for the weather conditions in past years. The results will help you decide how hot, cold, wet, or windy it might be!

Date:

Astronomy

Jan. 20, 2013 Rise Set
Actual Time 8:04 AM EST 5:42 PM EST
Civil Twilight 7:34 AM EST 6:12 PM EST
Nautical Twilight 7:00 AM EST 6:47 PM EST
Astronomical Twilight 6:27 AM EST 7:20 PM EST
Moon 12:43 PM EST (1/20) 2:36 AM EST (1/20)
Length of Visible Light 10h 38m
Length of Day
9h 37m
Waxing Gibbous, 66% of the Moon is Illuminated
Jan 20
Waxing Gibbous
Jan 26
Full
Feb 3
Last Quarter
Feb 10
New
Feb 17
First Quarter

Hourly Weather History & Observations

Time (EST) Temp. Windchill Dew Point Humidity Pressure Visibility Wind Dir Wind Speed Gust Speed Precip Events Conditions
12:14 AM 40.3 °F 30.4 °F 28.0 °F 62% 29.69 in 10.0 mi West 21.9 mph 29.9 mph N/A   Mostly Cloudy
12:35 AM 39.4 °F 29.5 °F 26.4 °F 60% 29.70 in 10.0 mi West 20.7 mph 34.5 mph N/A   Scattered Clouds
12:54 AM 39.4 °F 28.3 °F 26.4 °F 60% 29.70 in 10.0 mi West 26.5 mph 39.1 mph N/A   Mostly Cloudy
1:15 AM 36.0 °F 22.2 °F 18.0 °F 48% 29.73 in 10.0 mi WNW 34.5 mph 46.0 mph N/A   Mostly Cloudy
1:35 AM 32.9 °F 17.8 °F 16.9 °F 52% 29.77 in 10.0 mi WNW 35.7 mph 50.6 mph N/A   Scattered Clouds
1:55 AM 31.1 °F 16.6 °F 16.5 °F 55% 29.79 in 10.0 mi West 28.8 mph 43.7 mph N/A   Scattered Clouds
3:34 AM 25.7 °F 9.6 °F 12.2 °F 57% 29.92 in 10.0 mi WNW 27.6 mph 38.0 mph N/A   Overcast
3:55 AM 25.2 °F 8.9 °F 12.0 °F 58% 29.94 in 10.0 mi WNW 27.6 mph 35.7 mph N/A   Overcast
4:15 AM 23.7 °F 8.9 °F 11.8 °F 61% 29.95 in 10.0 mi WNW 20.7 mph 29.9 mph N/A Snow Light Snow
4:34 AM 23.0 °F 8.7 °F 11.1 °F 60% 29.96 in 10.0 mi WNW 18.4 mph 23.0 mph N/A   Overcast
4:55 AM 22.5 °F 6.9 °F 10.6 °F 60% 29.97 in 10.0 mi WNW 21.9 mph 28.8 mph N/A   Overcast
5:15 AM 21.2 °F 4.2 °F 9.1 °F 60% 29.99 in 10.0 mi WNW 25.3 mph 38.0 mph N/A   Overcast
5:34 AM 20.7 °F 4.5 °F 10.9 °F 66% 30.00 in 10.0 mi WNW 21.9 mph 31.1 mph N/A Snow Light Snow
5:55 AM 20.1 °F 6.4 °F 11.1 °F 68% 30.02 in 5.0 mi WNW 15.0 mph 35.7 mph N/A Snow Light Snow
6:15 AM 19.4 °F 5.0 °F 10.4 °F 68% 30.04 in 10.0 mi WNW 16.1 mph 29.9 mph N/A   Overcast
6:34 AM 19.2 °F 4.3 °F 9.3 °F 65% 30.06 in 10.0 mi WNW 17.3 mph 29.9 mph N/A Snow Light Snow
6:55 AM 18.7 °F 3.1 °F 11.5 °F 74% 30.07 in 7.0 mi WNW 18.4 mph 23.0 mph N/A Snow Light Snow
7:15 AM 18.5 °F 2.0 °F 8.6 °F 65% 30.08 in 10.0 mi WNW 20.7 mph 24.2 mph N/A   Overcast
7:35 AM 18.7 °F 4.0 °F 10.0 °F 69% 30.10 in 7.0 mi NW 16.1 mph 25.3 mph N/A Snow Light Snow
7:55 AM 18.1 °F 2.9 °F 10.2 °F 71% 30.11 in 5.0 mi WNW 17.3 mph 25.3 mph N/A Snow Light Snow
8:14 AM 17.6 °F 2.2 °F 9.9 °F 72% 30.12 in 10.0 mi NW 17.3 mph 24.2 mph N/A   Overcast
8:35 AM 18.0 °F 3.1 °F 10.0 °F 71% 30.13 in 10.0 mi NW 16.1 mph 23.0 mph N/A   Overcast
8:55 AM 17.8 °F 2.9 °F 9.7 °F 71% 30.15 in 10.0 mi WNW 16.1 mph 25.3 mph N/A   Overcast
9:14 AM 18.1 °F 2.9 °F 10.4 °F 72% 30.15 in 10.0 mi WNW 17.3 mph 23.0 mph N/A Snow Light Snow
9:35 AM 18.5 °F 4.3 °F 10.8 °F 72% 30.16 in 5.0 mi NW 15.0 mph 19.6 mph N/A Snow Light Snow
10:35 AM 19.2 °F 7.0 °F 12.6 °F 75% 30.19 in 4.0 mi WNW 11.5 mph - N/A Snow Light Snow
10:55 AM 19.4 °F 8.6 °F 13.3 °F 77% 30.20 in 3.0 mi WNW 9.2 mph - N/A Snow Light Snow
11:14 AM 19.4 °F 6.6 °F 13.3 °F 77% 30.22 in 2.0 mi WNW 12.7 mph 18.4 mph N/A Snow Light Snow
11:35 AM 19.0 °F 4.5 °F 12.7 °F 76% 30.21 in 2.5 mi West 16.1 mph 19.6 mph N/A Snow Light Snow
11:55 AM 19.4 °F 6.6 °F 12.2 °F 74% 30.21 in 7.0 mi WNW 12.7 mph 18.4 mph N/A Snow Light Snow
12:15 PM 18.9 °F 5.9 °F 11.7 °F 74% 30.19 in 3.0 mi WNW 12.7 mph 20.7 mph N/A Snow Light Snow
12:35 PM 19.2 °F 7.0 °F 11.7 °F 72% 30.18 in 7.0 mi WNW 11.5 mph - N/A Snow Light Snow
1:15 PM 19.4 °F 6.6 °F 12.6 °F 75% 30.17 in 5.0 mi West 12.7 mph 21.9 mph N/A Snow Light Snow
1:35 PM 19.0 °F 4.0 °F 11.8 °F 74% 30.18 in 10.0 mi WNW 17.3 mph 21.9 mph N/A Snow Light Snow
1:54 PM 19.2 °F 5.3 °F 11.3 °F 71% 30.18 in 7.0 mi WNW 15.0 mph 20.7 mph N/A Snow Light Snow
2:15 PM 19.4 °F 4.5 °F 10.8 °F 69% 30.18 in 7.0 mi West 17.3 mph 23.0 mph N/A Snow Light Snow
2:35 PM 19.2 °F 4.3 °F 10.4 °F 69% 30.18 in 10.0 mi WNW 17.3 mph 25.3 mph N/A Snow Light Snow
2:54 PM 19.2 °F 5.3 °F 10.6 °F 69% 30.19 in 10.0 mi West 15.0 mph 24.2 mph N/A Snow Light Snow
3:35 PM 19.4 °F 5.0 °F 10.4 °F 68% 30.19 in 10.0 mi WNW 16.1 mph - N/A Snow Light Snow
3:54 PM 19.0 °F 6.1 °F 9.5 °F 66% 30.18 in 10.0 mi WNW 12.7 mph - N/A   Overcast
4:15 PM 19.2 °F 6.4 °F 11.1 °F 71% 30.18 in 5.0 mi WNW 12.7 mph 17.3 mph N/A Snow Light Snow
5:15 PM 18.5 °F 8.4 °F 11.8 °F 75% 30.20 in 4.0 mi NW 8.1 mph - N/A Snow Light Snow
5:35 PM 18.3 °F 8.2 °F 10.9 °F 73% 30.19 in 7.0 mi WNW 8.1 mph - N/A Snow Light Snow
5:55 PM 18.3 °F 8.2 °F 10.4 °F 71% 30.20 in 10.0 mi WNW 8.1 mph - N/A Snow Light Snow
6:15 PM 18.3 °F 5.9 °F 8.6 °F 66% 30.21 in 10.0 mi WNW 11.5 mph - N/A   Overcast
6:34 PM 18.3 °F 8.2 °F 8.4 °F 65% 30.21 in 10.0 mi WNW 8.1 mph - N/A   Overcast
6:55 PM 18.5 °F 6.8 °F 9.5 °F 68% 30.21 in 10.0 mi WNW 10.4 mph - N/A   Overcast
7:15 PM 18.3 °F 6.6 °F 9.1 °F 67% 30.20 in 10.0 mi WNW 10.4 mph - N/A Snow Light Snow
7:34 PM 18.1 °F 7.1 °F 9.1 °F 68% 30.19 in 10.0 mi West 9.2 mph - N/A   Overcast
7:55 PM 18.1 °F 7.1 °F 9.1 °F 68% 30.19 in 10.0 mi West 9.2 mph - N/A   Overcast
8:15 PM 18.1 °F 8.9 °F 9.0 °F 67% 30.19 in 10.0 mi West 6.9 mph - N/A   Overcast
8:34 PM 17.6 °F 8.2 °F 8.4 °F 67% 30.18 in 10.0 mi West 6.9 mph - N/A   Overcast
8:55 PM 18.0 °F 7.7 °F 8.1 °F 65% 30.19 in 10.0 mi West 8.1 mph - N/A   Overcast
9:15 PM 18.0 °F 8.7 °F 8.1 °F 65% 30.18 in 10.0 mi WNW 6.9 mph - N/A   Overcast
9:35 PM 17.8 °F 9.6 °F 8.1 °F 66% 30.17 in 10.0 mi West 5.8 mph - N/A   Overcast
9:55 PM 17.6 °F 12.3 °F 7.7 °F 65% 30.17 in 10.0 mi West 3.5 mph - N/A   Overcast
10:14 PM 17.2 °F - 7.7 °F 66% 30.17 in 10.0 mi Calm Calm - N/A   Mostly Cloudy
10:35 PM 17.4 °F - 7.9 °F 66% 30.16 in 10.0 mi Calm Calm - N/A   Overcast
10:55 PM 17.6 °F 12.3 °F 8.8 °F 68% 30.16 in 10.0 mi SW 3.5 mph - N/A   Overcast
11:14 PM 18.0 °F 12.7 °F 9.1 °F 68% 30.15 in 10.0 mi SW 3.5 mph - N/A   Overcast
11:35 PM 18.0 °F 12.7 °F 8.6 °F 67% 30.15 in 10.0 mi SW 3.5 mph - N/A   Overcast
11:55 PM 18.1 °F 11.3 °F 9.3 °F 68% 30.14 in 10.0 mi SW 4.6 mph - N/A   Overcast